Time,TemperatureF,DewpointF,PressureIn,WindDirection,WindDirectionDegrees,WindSpeedMPH,WindSpeedGustMPH,Humidity,HourlyPrecipIn,Conditions,Clouds,dailyrainin,SoftwareType,DateUTC
2013-08-19 00:12:00,65.0,64.0,30.36,WSW,245,16.0,17.0,97,0.01,,,0.16,,2013-08-19 04:12:00,
2013-08-19 00:23:00,64.0,62.0,30.37,WSW,255,14.0,18.0,94,0.01,,,0.17,,2013-08-19 04:23:00,
2013-08-19 00:42:00,63.0,62.0,30.37,West,260,12.0,16.0,98,0.03,,,0.16,,2013-08-19 04:42:00,
2013-08-19 00:53:00,62.0,62.0,30.37,West,259,12.0,15.0,99,0.06,,,0.19,,2013-08-19 04:53:00,
2013-08-19 01:11:00,62.0,61.0,30.37,West,262,9.0,12.0,98,0.07,,,0.20,,2013-08-19 05:11:00,
2013-08-19 01:22:00,62.0,62.0,30.37,WSW,238,8.0,9.0,99,0.09,,,0.23,,2013-08-19 05:22:00,
2013-08-19 01:42:00,62.0,61.0,30.37,WSW,252,6.0,7.0,97,0.09,,,0.24,,2013-08-19 05:42:00,
2013-08-19 01:52:00,63.0,63.0,30.35,SW,216,9.0,10.0,100,0.08,,,0.26,,2013-08-19 05:52:00,
2013-08-19 02:11:00,62.0,62.0,30.35,SSW,211,9.0,10.0,100,0.07,,,0.26,,2013-08-19 06:11:00,
2013-08-19 02:21:00,62.0,62.0,30.34,SW,228,10.0,10.0,100,0.04,,,0.26,,2013-08-19 06:21:00,
2013-08-19 02:42:00,63.0,63.0,30.34,SW,224,11.0,14.0,100,0.03,,,0.26,,2013-08-19 06:42:00,
2013-08-19 02:52:00,63.0,63.0,30.34,SW,232,13.0,14.0,100,0.02,,,0.26,,2013-08-19 06:52:00,
2013-08-19 03:12:00,63.0,63.0,30.33,WSW,246,9.0,18.0,100,0.02,,,0.27,,2013-08-19 07:12:00,
2013-08-19 03:21:00,61.0,61.0,30.32,SSW,201,7.0,13.0,100,0.01,,,0.26,,2013-08-19 07:21:00,
2013-08-19 03:42:00,61.0,61.0,30.32,South,185,3.0,7.0,100,0.02,,,0.27,,2013-08-19 07:42:00,
2013-08-19 03:52:00,62.0,62.0,30.32,SSW,208,10.0,11.0,100,0.02,,,0.27,,2013-08-19 07:52:00,
2013-08-19 04:11:00,63.0,63.0,30.32,SSW,203,11.0,15.0,100,0.02,,,0.28,,2013-08-19 08:11:00,
2013-08-19 04:21:00,62.0,62.0,30.32,SSW,204,11.0,14.0,100,0.03,,,0.29,,2013-08-19 08:21:00,
2013-08-19 04:42:00,62.0,62.0,30.32,SW,215,10.0,11.0,100,0.02,,,0.29,,2013-08-19 08:42:00,
2013-08-19 04:52:00,62.0,62.0,30.31,SSW,212,8.0,9.0,100,0.03,,,0.30,,2013-08-19 08:52:00,
2013-08-19 05:11:00,62.0,62.0,30.31,SSW,205,9.0,10.0,100,0.02,,,0.30,,2013-08-19 09:11:00,
2013-08-19 05:22:00,62.0,62.0,30.30,South,183,4.0,8.0,100,0.02,,,0.31,,2013-08-19 09:22:00,
2013-08-19 05:43:00,62.0,62.0,30.30,SSW,194,4.0,6.0,100,0.02,,,0.31,,2013-08-19 09:43:00,
2013-08-19 05:53:00,61.0,61.0,30.30,SSE,152,3.0,7.0,100,0.01,,,0.31,,2013-08-19 09:53:00,
2013-08-19 06:12:00,61.0,61.0,30.29,SSE,150,5.0,6.0,100,0.01,,,0.31,,2013-08-19 10:12:00,
2013-08-19 06:23:00,61.0,61.0,30.30,ESE,122,4.0,5.0,100,0.00,,,0.29,,2013-08-19 10:23:00,
2013-08-19 06:43:00,61.0,61.0,30.30,SSE,155,2.0,3.0,100,0.00,,,0.29,,2013-08-19 10:43:00,
2013-08-19 06:52:00,62.0,62.0,30.30,East,85,3.0,4.0,100,0.01,,,0.30,,2013-08-19 10:52:00,
2013-08-19 07:12:00,62.0,62.0,30.29,East,87,6.0,6.0,100,0.01,,,0.30,,2013-08-19 11:12:00,
2013-08-19 07:22:00,62.0,62.0,30.30,East,96,4.0,5.0,100,0.01,,,0.25,,2013-08-19 11:22:00,
2013-08-19 07:45:00,62.0,62.0,30.30,East,82,5.0,7.0,100,0.01,,,0.25,,2013-08-19 11:45:00,
2013-08-19 07:52:00,62.0,62.0,30.29,East,84,7.0,8.0,100,0.00,,,0.25,,2013-08-19 11:52:00,
2013-08-19 08:11:00,62.0,62.0,30.30,East,88,5.0,7.0,100,0.01,,,0.26,,2013-08-19 12:11:00,
2013-08-19 08:21:00,62.0,62.0,30.29,East,82,14.0,14.0,100,0.21,,,0.46,,2013-08-19 12:21:00,
2013-08-19 08:42:00,62.0,62.0,30.28,East,86,16.0,16.0,100,0.24,,,0.49,,2013-08-19 12:42:00,
2013-08-19 08:52:00,60.0,60.0,30.29,East,89,13.0,16.0,100,0.33,,,0.58,,2013-08-19 12:52:00,
2013-08-19 09:13:00,60.0,60.0,30.29,East,84,13.0,15.0,100,0.43,,,0.69,,2013-08-19 13:13:00,
2013-08-19 09:22:00,60.0,60.0,30.30,ENE,70,8.0,16.0,100,0.40,,,0.86,,2013-08-19 13:22:00,
2013-08-19 09:42:00,60.0,60.0,30.30,NNE,27,17.0,20.0,100,0.46,,,0.95,,2013-08-19 13:42:00,
2013-08-19 09:52:00,59.0,59.0,30.29,North,5,18.0,21.0,100,0.44,,,1.01,,2013-08-19 13:52:00,
2013-08-19 10:11:00,59.0,59.0,30.30,North,4,18.0,19.0,100,0.36,,,1.03,,2013-08-19 14:11:00,
2013-08-19 10:22:00,59.0,59.0,30.31,NNE,20,11.0,12.0,100,0.18,,,1.03,,2013-08-19 14:22:00,
2013-08-19 10:42:00,59.0,59.0,30.31,North,6,10.0,10.0,100,0.10,,,1.03,,2013-08-19 14:42:00,
2013-08-19 10:52:00,60.0,60.0,30.32,North,4,9.0,9.0,100,0.04,,,1.04,,2013-08-19 14:52:00,
2013-08-19 11:11:00,61.0,61.0,30.32,NNE,15,8.0,8.0,100,0.02,,,1.04,,2013-08-19 15:11:00,
2013-08-19 11:23:00,62.0,62.0,30.32,North,10,4.0,6.0,100,0.02,,,1.05,,2013-08-19 15:23:00,
2013-08-19 11:44:00,62.0,61.0,30.33,NE,51,4.0,5.0,97,0.02,,,1.05,,2013-08-19 15:44:00,
2013-08-19 11:54:00,61.0,61.0,30.33,ENE,66,1.0,3.0,99,0.03,,,1.07,,2013-08-19 15:54:00,
2013-08-19 12:13:00,62.0,62.0,30.33,SSE,156,0.0,2.0,99,0.04,,,1.08,,2013-08-19 16:13:00,
2013-08-19 12:23:00,61.0,61.0,30.33,NNW,347,3.0,5.0,100,0.05,,,1.10,,2013-08-19 16:23:00,
2013-08-19 12:47:00,62.0,62.0,30.33,WNW,285,2.0,4.0,100,0.06,,,1.11,,2013-08-19 16:47:00,
2013-08-19 13:13:00,64.0,64.0,30.32,SSW,208,1.0,4.0,100,0.03,,,1.11,,2013-08-19 17:13:00,
2013-08-19 13:30:00,65.0,-99.9,30.32,WNW,302,3.0,4.0,98,0.01,,,1.11,,2013-08-19 17:30:00,
2013-08-19 13:49:00,65.0,64.0,30.32,WSW,248,2.0,5.0,98,0.00,,,1.11,,2013-08-19 17:49:00,
2013-08-19 13:57:00,66.0,65.0,30.32,South,179,2.0,5.0,95,0.00,,,1.11,,2013-08-19 17:57:00,
2013-08-19 14:19:00,66.0,64.0,30.32,WSW,257,2.0,4.0,93,0.00,,,1.11,,2013-08-19 18:19:00,
2013-08-19 14:28:00,68.0,65.0,30.32,SSW,210,3.0,6.0,90,0.00,,,1.11,,2013-08-19 18:28:00,
2013-08-19 14:50:00,-999.0,-99.9,30.32,SSE,158,3.0,5.0,90,0.00,,,1.11,,2013-08-19 18:50:00,
2013-08-19 15:00:00,-999.0,-99.9,30.31,SSE,150,1.0,3.0,96,0.00,,,1.11,,2013-08-19 19:00:00,
2013-08-19 15:16:00,65.0,64.0,30.31,SE,146,2.0,4.0,95,0.00,,,1.11,,2013-08-19 19:16:00,
2013-08-19 15:30:00,-999.0,-99.9,30.30,SSE,162,3.0,5.0,98,0.00,,,1.11,,2013-08-19 19:30:00,
2013-08-19 15:50:00,64.0,63.0,30.30,East,96,3.0,4.0,98,0.00,,,1.11,,2013-08-19 19:50:00,
2013-08-19 15:59:00,63.0,63.0,30.29,SSE,165,3.0,5.0,99,0.00,,,1.11,,2013-08-19 19:59:00,
2013-08-19 16:20:00,64.0,64.0,30.29,SSE,158,3.0,6.0,99,0.00,,,1.11,,2013-08-19 20:20:00,
2013-08-19 16:30:00,64.0,-99.9,30.28,ESE,113,4.0,6.0,97,0.00,,,1.11,,2013-08-19 20:30:00,
2013-08-19 16:50:00,65.0,64.0,30.28,SSE,161,1.0,4.0,97,0.00,,,1.11,,2013-08-19 20:50:00,
2013-08-19 17:00:00,-999.0,-99.9,30.28,East,101,1.0,4.0,-999,-99.99,,,-99.99,,2013-08-19 21:00:00,
2013-08-19 17:16:00,65.0,65.0,30.28,ESE,117,3.0,4.0,99,0.00,,,1.11,,2013-08-19 21:16:00,
2013-08-19 17:25:00,64.0,64.0,30.28,SE,132,2.0,5.0,99,0.00,,,1.11,,2013-08-19 21:25:00,
2013-08-19 17:46:00,64.0,64.0,30.28,ESE,113,2.0,4.0,99,0.00,,,1.11,,2013-08-19 21:46:00,
2013-08-19 17:55:00,64.0,63.0,30.27,WSW,242,3.0,6.0,98,0.00,,,1.11,,2013-08-19 21:55:00,
2013-08-19 18:25:00,65.0,64.0,30.27,ESE,115,1.0,2.0,97,0.00,,,1.11,,2013-08-19 22:25:00,
2013-08-19 18:44:00,65.0,64.0,30.27,SSE,157,0.0,2.0,98,0.00,,,1.11,,2013-08-19 22:44:00,
2013-08-19 18:55:00,64.0,63.0,30.27,SW,228,1.0,2.0,95,0.00,,,1.11,,2013-08-19 22:55:00,
2013-08-19 19:15:00,64.0,61.0,30.27,SSE,160,4.0,4.0,90,0.00,,,1.11,,2013-08-19 23:15:00,
2013-08-19 19:25:00,64.0,63.0,30.27,SSE,165,3.0,5.0,97,0.00,,,1.10,,2013-08-19 23:25:00,
2013-08-19 19:48:00,64.0,61.0,30.27,SSE,160,5.0,6.0,90,0.00,,,1.10,,2013-08-19 23:48:00,
2013-08-19 19:55:00,64.0,61.0,30.28,SSE,150,6.0,7.0,91,0.00,,,1.10,,2013-08-19 23:55:00,
2013-08-19 20:11:00,64.0,62.0,30.28,SSE,160,7.0,8.0,93,0.00,,,1.10,,2013-08-20 00:11:00,
2013-08-19 20:24:00,64.0,63.0,30.28,SSE,158,6.0,8.0,96,0.00,,,1.10,,2013-08-20 00:24:00,
2013-08-19 20:42:00,64.0,63.0,30.29,SSE,162,5.0,6.0,97,0.00,,,1.10,,2013-08-20 00:42:00,
2013-08-19 20:53:00,63.0,62.0,30.29,SSE,158,3.0,5.0,97,0.00,,,1.10,,2013-08-20 00:53:00,
2013-08-19 21:11:00,63.0,62.0,30.29,SSE,154,4.0,5.0,98,0.00,,,1.10,,2013-08-20 01:11:00,
2013-08-19 21:22:00,63.0,63.0,30.29,SSE,149,1.0,2.0,100,0.00,,,1.10,,2013-08-20 01:22:00,
2013-08-19 21:42:00,63.0,63.0,30.29,SE,143,1.0,2.0,100,0.00,,,1.10,,2013-08-20 01:42:00,
2013-08-19 21:52:00,63.0,62.0,30.29,SE,140,1.0,3.0,95,0.00,,,1.10,,2013-08-20 01:52:00,
2013-08-19 22:11:00,64.0,62.0,30.29,ESE,120,3.0,3.0,94,0.00,,,1.10,,2013-08-20 02:11:00,
2013-08-19 22:21:00,64.0,62.0,30.30,ESE,116,3.0,4.0,93,0.00,,,1.10,,2013-08-20 02:21:00,
2013-08-19 22:42:00,64.0,62.0,30.30,ESE,123,4.0,5.0,94,0.00,,,1.10,,2013-08-20 02:42:00,
2013-08-19 22:52:00,63.0,62.0,30.30,SE,126,6.0,7.0,97,0.00,,,1.10,,2013-08-20 02:52:00,
2013-08-19 23:11:00,63.0,62.0,30.30,ESE,120,5.0,7.0,98,0.00,,,1.10,,2013-08-20 03:11:00,
2013-08-19 23:22:00,63.0,63.0,30.30,ESE,119,4.0,6.0,99,0.00,,,1.09,,2013-08-20 03:22:00,
2013-08-19 23:43:00,63.0,63.0,30.31,SSE,148,3.0,6.0,99,0.00,,,1.09,,2013-08-20 03:43:00,
2013-08-19 23:54:00,63.0,63.0,30.32,SSE,165,6.0,7.0,99,0.00,,,1.09,,2013-08-20 03:54:00,